DAL3828 KJFK-KBOS

Flight info

Callsign DAL3828
Flight time N/A
Altitude 21000
Route MERIT ROBUC3
Aircraft B77L/H-SDE1E2E3FGHIJ2J3J4J5M1RWXY/LB1D1

Departure

Time 2026-05-09 05:42
Airport John F. Kennedy International Airport (KJFK)

Arrival

Time N/A
Airport Boston Logan International Airport (KBOS)
Time Latitude Longitude Altitude Speed Heading
2026-05-09 05:19 40.65069 -73.78382 25 ft 0 kts 121°
2026-05-09 05:30 40.65075 -73.78394 25 ft 2 kts 111°
2026-05-09 05:31 40.65081 -73.78414 30 ft 2 kts 104°
2026-05-09 05:31 40.65084 -73.78435 31 ft 2 kts 88°
2026-05-09 05:31 40.65081 -73.78454 31 ft 2 kts 63°
2026-05-09 05:31 40.65072 -73.78471 32 ft 2 kts 36°
2026-05-09 05:32 40.65060 -73.78480 30 ft 1 kts 13°
2026-05-09 05:32 40.65058 -73.78481 29 ft 0 kts
2026-05-09 05:35 40.65065 -73.78480 28 ft 5 kts
2026-05-09 05:35 40.65145 -73.78446 27 ft 16 kts 22°
2026-05-09 05:35 40.65206 -73.78413 27 ft 0 kts 23°
2026-05-09 05:35 40.65224 -73.78400 26 ft 9 kts 31°
2026-05-09 05:36 40.65235 -73.78389 29 ft 3 kts 41°
2026-05-09 05:36 40.65237 -73.78316 30 ft 12 kts 107°
2026-05-09 05:36 40.65179 -73.78187 30 ft 23 kts 120°
2026-05-09 05:36 40.65092 -73.77993 29 ft 25 kts 121°
2026-05-09 05:37 40.65004 -73.77799 29 ft 25 kts 121°
2026-05-09 05:37 40.64913 -73.77598 27 ft 28 kts 121°
2026-05-09 05:37 40.64809 -73.77369 27 ft 29 kts 121°
2026-05-09 05:37 40.64732 -73.77198 30 ft 19 kts 124°
2026-05-09 05:38 40.64641 -73.77098 29 ft 17 kts 162°
2026-05-09 05:38 40.64577 -73.77007 29 ft 13 kts 95°
2026-05-09 05:38 40.64618 -73.76907 29 ft 20 kts 32°
2026-05-09 05:38 40.64673 -73.76861 26 ft 0 kts 32°
2026-05-09 05:39 40.64673 -73.76860 26 ft 1 kts 32°
2026-05-09 05:39 40.64781 -73.76776 30 ft 27 kts 28°
2026-05-09 05:39 40.64943 -73.76648 30 ft 27 kts 30°
2026-05-09 05:39 40.65082 -73.76532 29 ft 18 kts 52°
2026-05-09 05:40 40.65090 -73.76477 26 ft 0 kts 99°
2026-05-09 05:40 40.65090 -73.76475 26 ft 2 kts 100°
2026-05-09 05:40 40.65063 -73.76401 27 ft 17 kts 130°
2026-05-09 05:40 40.64993 -73.76384 27 ft 10 kts 199°
2026-05-09 05:41 40.64931 -73.76426 26 ft 10 kts 210°
2026-05-09 05:41 40.64905 -73.76446 31 ft 3 kts 210°
2026-05-09 05:41 40.64892 -73.76456 31 ft 1 kts 210°
2026-05-09 05:41 40.64889 -73.76458 28 ft 0 kts 210°
2026-05-09 05:42 40.64885 -73.76461 28 ft 8 kts 210°
2026-05-09 05:42 40.64548 -73.76725 28 ft 111 kts 210°
2026-05-09 05:42 40.63627 -73.77416 215 ft 183 kts 210°
2026-05-09 05:42 40.62594 -73.78265 1603 ft 165 kts 214°
2026-05-09 05:43 40.61583 -73.79082 2580 ft 179 kts 215°
2026-05-09 05:43 40.60302 -73.79750 2878 ft 222 kts 187°
2026-05-09 05:43 40.58699 -73.79262 3295 ft 265 kts 152°
2026-05-09 05:43 40.57435 -73.77462 4311 ft 277 kts 120°
2026-05-09 05:44 40.56926 -73.74973 5305 ft 293 kts 91°
2026-05-09 05:44 40.57421 -73.72389 6432 ft 295 kts 57°
2026-05-09 05:44 40.58819 -73.70467 7425 ft 293 kts 28°
2026-05-09 05:44 40.60607 -73.69172 8474 ft 293 kts 19°
2026-05-09 05:45 40.62465 -73.68040 9589 ft 296 kts 17°
2026-05-09 05:45 40.64352 -73.66896 10559 ft 303 kts 17°
2026-05-09 05:45 40.66334 -73.65664 11063 ft 330 kts 18°
2026-05-09 05:45 40.68510 -73.64263 11330 ft 365 kts 20°
2026-05-09 05:46 40.70841 -73.62697 11979 ft 383 kts 21°
2026-05-09 05:46 40.73223 -73.61036 13028 ft 391 kts 22°
2026-05-09 05:46 40.75649 -73.59310 14142 ft 397 kts 22°
2026-05-09 05:46 40.78091 -73.57555 15096 ft 404 kts 22°
2026-05-09 05:47 40.80548 -73.55782 15976 ft 412 kts 22°
2026-05-09 05:47 40.83091 -73.53944 16894 ft 420 kts 22°
2026-05-09 05:47 40.85677 -73.52073 17858 ft 426 kts 22°
2026-05-09 05:47 40.88302 -73.50173 18762 ft 432 kts 21°
2026-05-09 05:48 40.90954 -73.48252 19569 ft 438 kts 21°
2026-05-09 05:48 40.93644 -73.46302 20360 ft 444 kts 21°
2026-05-09 05:48 40.96370 -73.44326 20982 ft 448 kts 20°
2026-05-09 05:48 40.99075 -73.42358 20980 ft 446 kts 21°
2026-05-09 05:49 41.01791 -73.40378 20995 ft 445 kts 21°
2026-05-09 05:49 41.04503 -73.38403 21006 ft 445 kts 21°
2026-05-09 05:49 41.07239 -73.36523 21008 ft 442 kts 17°
2026-05-09 05:49 41.10020 -73.34801 21011 ft 441 kts 17°
2026-05-09 05:50 41.12787 -73.33025 21015 ft 442 kts 18°
2026-05-09 05:50 41.15532 -73.31124 21016 ft 445 kts 20°
2026-05-09 05:50 41.18242 -73.29129 21017 ft 446 kts 21°
2026-05-09 05:50 41.20939 -73.27072 21011 ft 446 kts 22°
2026-05-09 05:51 41.23619 -73.24998 21011 ft 446 kts 22°
2026-05-09 05:51 41.26273 -73.22940 21019 ft 446 kts 22°
2026-05-09 05:51 41.28950 -73.20871 21020 ft 446 kts 22°
2026-05-09 05:51 41.31649 -73.18792 21023 ft 446 kts 22°
2026-05-09 05:52 41.34328 -73.16713 21025 ft 443 kts 24°
2026-05-09 05:52 41.36707 -73.14013 21012 ft 461 kts 45°
2026-05-09 05:52 41.38409 -73.10322 21019 ft 475 kts 63°
2026-05-09 05:52 41.39234 -73.06114 21020 ft 476 kts 80°
2026-05-09 05:53 41.39667 -73.01722 21024 ft 479 kts 81°
2026-05-09 05:53 41.40082 -72.97297 21022 ft 481 kts 81°
2026-05-09 05:53 41.40504 -72.92861 21020 ft 483 kts 81°
2026-05-09 05:53 41.40944 -72.88419 21021 ft 483 kts 81°
2026-05-09 05:54 41.41393 -72.84042 21022 ft 483 kts 80°
2026-05-09 05:54 41.41859 -72.79606 21028 ft 483 kts 80°
2026-05-09 05:54 41.42328 -72.75179 21015 ft 482 kts 80°
2026-05-09 05:54 41.42795 -72.70767 21020 ft 481 kts 80°
2026-05-09 05:55 41.43260 -72.66361 21019 ft 480 kts 80°
2026-05-09 05:55 41.43725 -72.61936 21013 ft 479 kts 80°
2026-05-09 05:55 41.44185 -72.57531 21015 ft 479 kts 80°
2026-05-09 05:55 41.44642 -72.53137 21021 ft 478 kts 80°
2026-05-09 05:56 41.45093 -72.48786 21017 ft 478 kts 80°
2026-05-09 05:56 41.45547 -72.44381 21022 ft 478 kts 80°
2026-05-09 05:56 41.46000 -72.39976 21016 ft 478 kts 80°
2026-05-09 05:56 41.46446 -72.35612 21014 ft 479 kts 80°
2026-05-09 05:57 41.46898 -72.31191 21023 ft 479 kts 81°
2026-05-09 05:57 41.47354 -72.26771 21018 ft 479 kts 79°
2026-05-09 05:57 41.48033 -72.22478 21029 ft 477 kts 72°
2026-05-09 05:57 41.49021 -72.18266 21021 ft 475 kts 66°
2026-05-09 05:58 41.50292 -72.14206 21016 ft 471 kts 60°
2026-05-09 05:58 41.51761 -72.10298 21029 ft 471 kts 58°
2026-05-09 05:58 41.53230 -72.06436 21031 ft 471 kts 59°
2026-05-09 05:58 41.54690 -72.02505 21037 ft 472 kts 59°
2026-05-09 05:59 41.56075 -71.98560 20964 ft 466 kts 63°
2026-05-09 05:59 41.57275 -71.94573 20614 ft 459 kts 64°
2026-05-09 05:59 41.58431 -71.90612 20135 ft 454 kts 65°
2026-05-09 05:59 41.59586 -71.86698 19590 ft 450 kts 64°
2026-05-09 06:00 41.60721 -71.82868 19064 ft 447 kts 64°
2026-05-09 06:00 41.61861 -71.79011 18561 ft 443 kts 64°
2026-05-09 06:00 41.62989 -71.75186 18042 ft 439 kts 64°
2026-05-09 06:00 41.64103 -71.71406 17489 ft 435 kts 64°
2026-05-09 06:01 41.65205 -71.67660 17182 ft 425 kts 64°
2026-05-09 06:01 41.66256 -71.64079 17074 ft 411 kts 64°
2026-05-09 06:01 41.67283 -71.60572 16968 ft 397 kts 64°
2026-05-09 06:01 41.68279 -71.57175 16812 ft 386 kts 64°
2026-05-09 06:02 41.69242 -71.53886 16508 ft 379 kts 64°
2026-05-09 06:02 41.70201 -71.50616 16136 ft 376 kts 64°
2026-05-09 06:02 41.71156 -71.47352 15675 ft 375 kts 64°
2026-05-09 06:02 41.72095 -71.44134 15242 ft 374 kts 63°
2026-05-09 06:03 41.73170 -71.41001 14846 ft 367 kts 55°
2026-05-09 06:03 41.74443 -71.38070 14458 ft 362 kts 52°
2026-05-09 06:03 41.75751 -71.35183 14065 ft 360 kts 52°
2026-05-09 06:03 41.77020 -71.32299 13680 ft 359 kts 53°
2026-05-09 06:04 41.78270 -71.29397 13301 ft 356 kts 54°
2026-05-09 06:04 41.79476 -71.26565 12953 ft 353 kts 54°
2026-05-09 06:04 41.80689 -71.23715 12585 ft 350 kts 54°
2026-05-09 06:04 41.81886 -71.20901 12317 ft 344 kts 54°
2026-05-09 06:05 41.83081 -71.18141 12076 ft 336 kts 53°
2026-05-09 06:05 41.84257 -71.15495 11786 ft 332 kts 53°
2026-05-09 06:05 41.85438 -71.12853 11560 ft 325 kts 53°
2026-05-09 06:05 41.86592 -71.10265 11321 ft 319 kts 53°
2026-05-09 06:06 41.87710 -71.07754 11045 ft 315 kts 53°
2026-05-09 06:06 41.88837 -71.05218 10709 ft 314 kts 53°
2026-05-09 06:06 41.89950 -71.02706 10372 ft 312 kts 53°
2026-05-09 06:06 41.91059 -71.00199 10048 ft 310 kts 53°
2026-05-09 06:07 41.92156 -70.97716 9726 ft 308 kts 54°
2026-05-09 06:07 41.93281 -70.95329 9378 ft 303 kts 50°
2026-05-09 06:07 41.94475 -70.93017 9063 ft 300 kts 49°
2026-05-09 06:07 41.95671 -70.90733 8724 ft 297 kts 49°
2026-05-09 06:08 41.96853 -70.88460 8390 ft 295 kts 49°